Content
SEND FEEDBACK

Daily
Averages
Monthly
Summary
United States of America

CHESTERFIELD, MISSOURI


Home > North America > United States > Missouri
Elevation: 559 feet     Latitude: 38 41N     Longitude: 090 31W

WEATHER
 
SELECT A DAY
Number of Records: 203,371;   Date Range: 1/1/95 - 7/23/14
 
SHARE

PRINT THIS DATA

[ ← Previous Day ]
WEATHER ALMANAC - MARCH 6, 2013
[ Next Day → ]
[ °C ]   °F
Weather ElementAverageHighLow
Temperature33.5 °F39.2 °F (3:09 pm)28 °F (11:51 pm)
Dewpoint21.7 °F23 °F (9:51 am)19.9 °F (12:51 am)
Humidity62.3 %75 % (11:51 pm)50 % (3:51 pm)
Barometer30.34 in30.40 in (10:51 am)30.18 in (12:51 am)
Wind Speed12.5 mph21.9 mph (12:51 am)
Wind Gust34.5 mph (12:51 am)
Weather ElementAverage
Visibility9.8 mi
Wind DirectionWNW (297.8 °)

Weather ElementTotal
Precipitation---
Heating Degree Days31.4 (Base 65)
Averaged from 32 records on March 6, 2013
WEATHER CONDITIONS BREAKOUT
WIND DIRECTION BREAKOUT
WEATHER BY HOUR - MARCH 6, 2013
[ °C ]   °F
Local TimeTemperatureDewpointHumidityBarometerVisibilityWind DirectionWind SpeedGust SpeedPrecipitationEventsConditions
12:51 AM33.1 °F19.9 °F59 %30.18 in9.0 miNW (320°)21.9 mph34.5 mph0.00 inSnowLight Snow
1:51 AM32.0 °F21.0 °F64 %30.21 in9.0 miNW (320°)15.0 mph26.5 mph0.00 inSnowLight Snow
2:51 AM32.0 °F21.0 °F64 %30.21 in9.0 miNW (310°)15.0 mph25.3 mph0.00 inSnowLight Snow
3:26 AM32.0 °F21.2 °F64 %30.19 in10.0 miNW (320°)16.1 mph24.2 mph0.00 inOvercast
3:51 AM32.0 °F21.0 °F64 %30.23 in10.0 miNW (320°)18.4 mph29.9 mph0.00 inOvercast
4:51 AM32.0 °F21.0 °F64 %30.27 in9.0 miNW (320°)17.3 mph24.2 mph0.00 inSnowLight Snow
5:51 AM30.9 °F21.9 °F69 %30.30 in9.0 miNW (320°)16.1 mph27.6 mph0.00 inSnowLight Snow
6:51 AM30.9 °F21.9 °F69 %30.32 in9.0 miNW (320°)16.1 mph25.3 mph0.00 inSnowLight Snow
7:16 AM30.2 °F21.2 °F69 %30.30 in10.0 miNW (320°)17.3 mph0.00 inOvercast
7:51 AM30.9 °F21.0 °F67 %30.35 in10.0 miNW (320°)13.8 mph24.2 mph0.00 inMostly Cloudy
8:00 AM32.0 °F21.2 °F64 %30.33 in10.0 miNW (320°)15.0 mphMostly Cloudy
8:51 AM32.0 °F21.0 °F64 %30.37 in10.0 miNW (310°)18.4 mphMostly Cloudy
9:16 AM33.8 °F21.2 °F60 %30.35 in10.0 miNW (320°)17.3 mph25.3 mphScattered Clouds
9:51 AM34.0 °F23.0 °F64 %30.39 in10.0 miNW (320°)13.8 mph20.7 mphScattered Clouds
10:15 AM33.8 °F23.0 °F65 %30.36 in10.0 miNW (310°)12.7 mph18.4 mphMostly Cloudy
10:51 AM35.1 °F23.0 °F61 %30.40 in10.0 miNW (320°)13.8 mph18.4 mphMostly Cloudy
11:51 AM36.0 °F23.0 °F59 %30.39 in10.0 miWNW (290°)12.7 mphMostly Cloudy
12:51 PM37.0 °F21.9 °F54 %30.38 in10.0 miWNW (300°)8.1 mphMostly Cloudy
1:38 PM37.4 °F23.0 °F56 %30.34 in10.0 miNNW (330°)12.7 mphMostly Cloudy
1:51 PM37.0 °F23.0 °F57 %30.37 in10.0 miNW (310°)11.5 mphMostly Cloudy
2:08 PM37.4 °F23.0 °F56 %30.34 in10.0 miNW (320°)11.5 mph17.3 mphMostly Cloudy
2:51 PM39.0 °F23.0 °F53 %30.38 in10.0 miWest (280°)11.5 mphMostly Cloudy
3:09 PM39.2 °F23.0 °F52 %30.34 in10.0 miNNW (330°)12.7 mph19.6 mphScattered Clouds
3:51 PM39.0 °F21.9 °F50 %30.38 in10.0 miWNW (290°)12.7 mph18.4 mphScattered Clouds
4:51 PM37.0 °F21.9 °F54 %30.38 in9.0 miNW (320°)8.1 mphScattered Clouds
5:51 PM35.1 °F21.0 °F57 %30.38 in10.0 miNW (310°)9.2 mphPartly Cloudy
6:51 PM33.1 °F21.0 °F61 %30.38 in10.0 miWNW (300°)6.9 mphPartly Cloudy
7:51 PM30.9 °F21.0 °F67 %30.37 in10.0 miNNW (330°)5.8 mphClear
8:51 PM30.0 °F21.0 °F69 %30.38 in10.0 miNW (310°)4.6 mphClear
9:51 PM30.0 °F21.0 °F69 %30.39 in10.0 miNorth (350°)4.6 mphClear
10:51 PM28.9 °F21.0 °F72 %30.38 in10.0 miNNE (20°)4.6 mphClear
11:51 PM28.0 °F21.0 °F75 %30.38 in10.0 miNE (50°)4.6 mphClear
Hourly data recorded from KSTL, located miles away from Chesterfield, Missouri







STORIES FROM OUR PARTNERS